OpenBCM V2.0.2 (Linux)

Packet Radio Mailbox

IZ3LSV

[San Dona' di P. JN]

 Login: GUEST





  
CX2SA  > KEP      14.01.09 01:33l 77 Lines 3133 Bytes #999 (0) @ WW
BID : ARLK004
Read: GUEST
Subj: ARLK004 Keplerian data
Path: IZ3LSV<IK3GET<IW2OHX<IK2QCA<I4UKI<IK6ZDE<VE2GPQ<CX2SA
Sent: 090113/2252Z @:CX2SA.LAV.URY.SA #:1238 [Minas] FBB7.00e $:ARLK004
From: CX2SA@CX2SA.LAV.URY.SA
To  : KEP@ARL


ZCZC SK04
QST de W1AW  
Keplerian Bulletin 4  ARLK004
From ARRL Headquarters
Newington, CT  January 13, 2009
To all radio amateurs 

SB KEP ARL ARLK004
ARLK004 Keplerian data

Special thanks to AMSAT-NA (AMSAT.ORG) for the following Keplerian
data.

Decode 2-line elsets with the following key:
1 AAAAAU 00  0  0 BBBBB.BBBBBBBB  .CCCCCCCC  00000-0  00000-0 0  DDDZ
2 AAAAA EEE.EEEE FFF.FFFF GGGGGGG HHH.HHHH III.IIII JJ.JJJJJJJJKKKKKZ
KEY: A-CATALOGNUM B-EPOCHTIME C-DECAY D-ELSETNUM E-INCLINATION F-RAAN
G-ECCENTRICITY H-ARGPERIGEE I-MNANOM J-MNMOTION K-ORBITNUM Z-CHECKSUM

AO-07
1 07530U 74089B   09013.10471709 -.00000027  00000-0  10000-3 0  3768
2 07530 101.4445 043.3854 0011851 211.7566 148.2793 12.53575001563284
UO-11
1 14781U 84021B   09013.29232942  .00000395  00000-0  59861-4 0  8609
2 14781 098.1304 056.1709 0010138 114.7312 245.4972 14.79690531334927
AO-16
1 20439U 90005D   09012.92730963  .00000016  00000-0  21252-4 0  5082
2 20439 098.2573 348.5680 0010018 274.5588 085.4448 14.31813616990934
AO-27
1 22825U 93061C   09013.50172569 -.00000036  00000-0  22931-5 0  1518
2 22825 098.4177 331.9691 0008651 006.6391 353.4931 14.29255981797810
IO-26
1 22826U 93061D   09012.81913891 -.00000000  00000-0  16347-4 0  8693
2 22826 098.4092 332.1266 0009229 004.6412 355.4850 14.29506796797817
FO-29
1 24278U 96046B   09013.44302985 -.00000084  00000-0 -50473-4 0  9500
2 24278 098.5771 268.0858 0351002 031.3384 330.8164 13.52941215612829
GO-32
1 25397U 98043D   09012.62495851  .00000034  00000-0  33203-4 0  7958
2 25397 098.3427 043.1857 0001385 029.3427 330.7854 14.23153709546003
ISS
1 25544U 98067A   09013.51803885  .00010885  00000-0  85177-4 0   615
2 25544 051.6431 018.6302 0006600 189.7471 313.9421 15.72207023581625
NO-44
1 26931U 01043C   09012.75697815  .00000063  00000-0  56739-4 0   724
2 26931 067.0522 104.7707 0005903 258.9895 101.0561 14.29544602380365
SO-50
1 27607U 02058C   09013.43169995 -.00000202  00000-0 -87288-5 0  7897
2 27607 064.5577 135.1056 0081200 238.7139 120.5948 14.71407381325907
CO-55
1 27844U 03031E   09012.76215815  .00000073  00000-0  54472-4 0  4866
2 27844 098.7155 024.1109 0009148 230.2084 129.8291 14.20617453287192
AO-51
1 28375U 04025K   09013.01158393  .00000001  00000-0  13257-4 0  2906
2 28375 098.0569 031.6244 0082908 236.3732 122.9529 14.40630179238612
VO-52
1 28650U 05017B   09013.38876749 -.00000246  00000-0 -24610-4 0  1284
2 28650 097.7651 079.9327 0027290 172.6840 187.4759 14.81541088199722
CO-58
1 28895U 05043F   09012.26010070  .00000135  00000-0  37884-4 0  2088
2 28895 098.0803 267.0692 0019059 114.7754 245.5417 14.59732189170989
HO-59
1 29484U 06041F   08170.27591928  .21901596  31637-5  19690-3 0  4662
2 29484 098.2496 292.5583 0013872 275.6258 084.5236 16.51113477 98738
DO-64
1 32789U 08021G   09013.23758243  .00000361  00000-0  52757-4 0  2642
2 32789 097.9688 078.3365 0015988 171.7149 188.4322 14.81587447 38504

Keplerian bulletins are transmitted twice weekly from W1AW.  The
next scheduled transmission of these data will be Friday, January 16,
2009, at 2330z on Baudot and AMTOR.
NNNN


Read previous mail | Read next mail


 04.05.2026 13:48:31lGo back Go up